Location: Coffee Ditch
(40.9640°N, 122.7500°W)
Time: 07:23:17
(UTC+00:00)

Cosmos 1900 - Pass Details

Date: 08 September 2024
Orbit: 689 x 728 km, 66.1° (Epoch: 05 October)

Event Time Altitude Azimuth Distance (km) Brightness Sun altitude
Exits shadow 12:51:17 - 219° (SW) 2,280 6.5 -10.8°
Reaches altitude 10° 12:51:31 10° 220° (SW) 2,195 6.4 -10.7°
Maximum altitude 12:56:29 66° 302° (WNW) 778 4.4 -9.8°
Drops below altitude 10° 13:01:26 10° 25° (NNE) 2,183 7.5 -8.9°
Sets 13:03:48 0° 29° (NNE) 3,098 8.4 -8.5°
